Location: Dalton Gardens
(47.7327°N, 116.7697°W)
Time: 01:50:41
(UTC+00:00)

BlueWalker 3 - Pass Details

Date: 07 December 2022
Orbit: 499 x 517 km, 53.2° (Epoch: 26 January)

Event Time Altitude Azimuth Distance (km) Brightness Sun altitude
Rises 01:48:26 0° 297° (WNW) 2,633 6.4 -18.2°
Reaches altitude 10° 01:50:40 10° 300° (WNW) 1,740 5.3 -18.5°
Maximum altitude 01:54:35 62° 22° (NNE) 577 2.0 -19.2°
Enters shadow 01:55:06 55° 63° (ENE) 617 2.0 -19.2°
